DELTA 1 DEB, 28443

Orbit data source: Space-Track

DELTA 1 DEB, 28443 is space debris in LEO originally from a launch on Thu, 08 Feb 1962 UTC launched from the Air Force Eastern Test Range (AFETR). Debris objects in space refer to the collection of defunct objects orbiting the Earth. Examples of debris include non-operational satellites, rocket bodies, and fragments generated from explosions, collisions, or faulty payload assembly.

Loading next visibility...
Identifier
28443, 1962-002E
Orbit
LEO
Country
Flag of USUS
Related business
Manufacturer
LM/EW
Mission
Spacecraft
Bus & Motor
Unknown
Mass
Unknown
Launch date (UTC)
1962-02-08 (64 years ago)
Launch vehicle
Unknown
Launch site
Air Force Eastern Test Range (AFETR)
Object type
Payload
Rocket body
Debris
Shape & HBR
Unknown shape, 0.1 m
Radar Cross Section
Small (<0.1 m²)

Expand to show TLE details & history
Last TLE update: 17 hours ago

TLE from 17 hours ago
0 DELTA 1 DEB
1 28443U 62002E   25297.46107235  .00000844  00000-0  21372-3 0  9998
2 28443  48.2685  83.6092 0071774 341.2128  59.1397 14.58393188272938
Epoch: 2025-10-24T11:03Z
TLE epoch observation values (Epoch: 2025-10-24T11:03:56.651Z)
Latitude
29.45167°
Longitude
-85.42087°
Altitude
673.674 km
Speed
7.538 km/s
True Right ascension
07h 34m 40s
True Declination
29° 18' 10"
Sunlit
Object was in daylight at epoch
Visualization orbit readout
Latitude
Unknown
Longitude
Unknown
Altitude
Unknown
Speed
Unknown
Apparent Right ascension
Unknown
Apparent Declination
Unknown
Sunlit
N/A
Visualization observer readout
Local Sidereal Time
23:12:52
Azimuth
Unknown
Elevation
Unknown
Doppler factor
Unknown
Orbital elements
Apogee altitude
750.194 km
Perigee altitude
648.598 km
Semi-major axis
7,077.533 km
Eccentricity
0.00718
Inclination
48.2685°
RAAN
83.6092°
Arg. of periapsis
341.2128°
True anomaly
59.84897°
Mean anomaly
59.1397°
Eccentric anomaly
59.49401°
Mean motion
3.64519 °/min
Orbital period
98.76 mins
BSTAR
0.00021372
Loading maneuver chart data...
Computing Atmospheric mass density...
Loading historical data...
Loading historical data...
Loading historical data...
Loading historical data...
Loading historical data...
Loading historical data...
Loading historical data...
Other satellites on launch #2 in the year 1962 (1962-02-08 UTC)

Documentation

Showing up to 5 results
|